Location: Prague
(50.0830°N, 14.4670°E)
Time: 09:23:22
(UTC+01:00)

STARLINK-1617 - Pass Details

Date: 25 January 2021
Orbit: 545 x 549 km, 53.1° (Epoch: 25 February)

Event Time Altitude Azimuth Distance (km) Brightness Sun altitude
Exits shadow 03:50:03 11° 72° (ENE) 1,774 6.9 -37.3°
Drops below altitude 10° 03:50:10 10° 72° (ENE) 1,821 7.0 -37.3°
Sets 03:52:26 0° 68° (ENE) 2,717 8.1 -37.0°
